Temp_Advection
nan nan nan nan nan nan nan nan nan nan nan nan nan nan nan nan nan nan nan nan nan nan nan nan nan nan nan nan nan nan nan nan nan nan nan nan nan nan nan nan nan nan nan nan nan nan nan nan nan
nan 0 0 -0 -0 -0 -0 0 0 -0 -0 -0 -0 -1 -1 -0 -1 -0 -0 -0 -0 -0 0 -0 -0 -0 -0 0 -0 0 -0 -0 0 0 0 0 -0 -0 -0 -0 -0 -0 -0 -0 0 0 0 0 nan
nan 0 -0 0 -0 -0 -0 0 -0 0 0 -0 -0 -1 -1 -0 -0 -0 0 0 0 -0 0 0 -0 -0 -0 -0 -0 -0 -0 -0 0 0 0 -0 -0 -0 -0 0 0 0 0 -0 -0 0 0 0 nan
nan -0 -0 -0 -1 0 -0 -0 -0 0 0 -0 -2 -1 -0 -0 0 -0 0 0 0 0 0 0 -0 -0 -0 -0 -0 -0 -0 -0 -0 -0 0 -0 -0 -0 -0 -0 -0 -0 -0 0 -0 -0 -0 0 nan
nan -0 -0 -0 -1 0 -0 -1 -1 -0 0 0 -1 -1 -0 -0 0 0 0 -0 -0 -0 0 -0 0 0 -0 -0 -0 -0 -0 -0 -0 0 0 -0 -0 -0 -0 -0 -0 -0 -0 -0 -0 -0 -0 -0 nan
nan -0 -0 -0 -0 0 -0 -0 -0 -0 -0 -0 -1 -1 -0 -0 0 0 0 -0 -0 -0 0 0 0 0 0 0 0 0 0 -0 -0 -0 -0 0 -0 -0 -0 -0 -0 -0 -0 -0 -0 -0 -0 -0 nan
nan -0 -0 -0 0 0 0 0 -0 -0 0 -0 -1 -1 -0 -0 -0 -0 0 0 0 0 -0 -0 -0 -0 -0 0 0 0 0 0 0 0 0 0 -0 -0 -0 -0 -0 -0 -0 -0 -0 -0 -0 -0 nan
nan -0 -0 -0 -0 0 0 0 0 -0 -0 1 -0 -0 -0 -0 -0 -0 0 0 0 -0 -0 -0 -0 -0 -0 -0 -0 0 0 0 0 0 0 0 0 0 -0 -0 -0 -0 -0 -0 -0 -0 -0 -0 nan
nan -0 -0 -0 -0 0 0 0 -0 -0 -0 -0 -0 0 -1 -0 0 0 0 0 -0 -0 -0 -0 -0 -0 -0 -0 -0 -0 -0 -0 -0 -0 -0 0 0 0 0 -0 -0 -0 -0 -0 -0 -0 -0 -0 nan
nan -0 -0 -1 -0 0 0 0 0 -0 -1 -0 -0 1 1 0 0 0 0 0 0 -0 -0 -0 -0 -0 -0 -0 -0 -0 -0 -0 -0 -0 -0 -0 0 0 0 0 0 -0 -0 -0 -0 -0 -0 -0 nan
nan -0 -0 -0 0 0 0 0 -0 -0 0 -1 -1 -0 0 0 0 0 0 0 -0 -0 -0 -0 -0 -0 -0 -0 -0 -0 -0 -0 -0 -0 -0 -0 -0 -0 -0 0 0 0 -0 -0 -0 -0 -0 -0 nan
nan -0 -1 -0 0 1 0 0 0 0 -0 -0 -1 -0 -0 -0 -0 0 0 -0 -0 -0 -0 -0 -0 -0 -0 -0 -0 -0 0 -0 -0 -0 -0 -0 -0 0 0 0 0 -0 -0 -0 -0 0 0 0 nan
nan -0 -0 0 0 0 0 -0 0 -0 0 0 -0 -0 -0 -0 -0 0 0 -0 0 -0 -0 -0 -0 -0 -0 -0 -0 -0 0 0 -0 -0 -0 -0 -0 -0 -0 0 0 0 0 -0 -0 -0 -0 -0 nan
nan -0 0 0 -0 0 0 -0 -0 -0 0 0 0 0 0 0 0 0 0 0 -0 -0 -0 -0 -0 -0 -0 -0 -0 -0 -0 0 -0 -0 -0 -0 -0 -0 -0 -0 -0 -0 -0 0 -0 -0 -0 -0 nan
nan -0 0 0 0 0 0 -0 -0 0 0 0 0 0 0 0 0 0 0 -0 -0 -0 -0 -0 -0 -0 -0 -0 -0 -0 -0 -0 -0 -1 -1 -0 -0 -0 -0 -0 -0 -0 -0 -0 -0 -0 -0 -0 nan
nan 0 -0 0 0 0 0 -0 -0 -0 -0 -0 -0 0 0 0 0 0 -0 -0 -0 0 -0 -0 -0 -0 -0 -0 0 -0 -0 -0 -0 -0 -0 -0 -0 -0 -0 -0 0 -0 0 -0 -0 -0 -0 -0 nan
nan 0 0 0 0 -0 -0 0 -0 -0 -0 -0 -0 -0 0 0 0 0 0 0 -0 -0 0 0 -0 -0 -0 -0 0 -0 -0 -0 -0 0 -0 -0 -0 -0 -0 -0 -0 -0 0 0 0 0 0 -0 nan
nan -0 -0 -0 0 -0 -0 -0 -0 -0 -0 -0 -0 -0 -0 -0 0 0 0 -0 -0 0 0 0 -0 -0 -0 -0 0 0 -0 -0 0 0 -0 -0 -0 -0 -0 -0 -0 -0 -0 -0 0 0 0 0 nan
nan -0 -0 -0 0 -0 -0 -0 -0 -0 0 -0 -0 -0 -0 -0 0 0 0 -0 -0 0 -0 0 0 -0 -0 0 0 0 -0 0 0 -0 -0 -0 -0 -0 -0 -0 -0 -0 -0 -0 -0 -0 -0 -0 nan
nan -0 -0 0 0 -0 -0 0 -0 -0 -1 -1 -0 -1 -0 -0 0 0 0 0 0 -0 -0 0 0 -0 0 0 0 -0 -0 -0 -0 -0 -0 -0 -0 -0 -0 -0 -0 -0 0 0 0 -0 -0 -0 nan
nan -0 -0 -0 0 0 -0 -0 -0 -0 -1 -0 -0 -0 0 0 0 0 0 0 1 0 -0 -0 0 0 0 0 0 -0 0 -0 -0 -0 -0 -0 -0 -0 -0 -0 -0 0 0 0 -0 -0 -0 -0 nan
nan 0 -0 -1 -0 0 -0 -0 -0 0 0 0 0 0 0 1 0 0 1 1 1 1 0 -0 0 0 0 0 0 0 0 -0 -0 -0 -0 0 0 0 -0 -0 -0 -0 0 -0 -0 -0 -0 -0 nan
nan 0 -0 -0 -0 0 0 0 -1 0 0 0 0 0 0 0 0 1 1 1 1 1 -0 -0 0 0 0 0 0 0 -0 -0 -0 -0 -0 -0 0 0 0 -0 -0 -0 -0 -0 -0 -0 -0 -0 nan
nan 0 0 -0 -0 -0 0 -0 -0 0 -0 -0 0 0 0 0 1 0 0 1 1 0 -0 0 0 0 0 0 0 0 0 0 -0 -0 -0 -0 -0 -0 -0 -0 -0 -0 -0 -0 -0 -0 -0 -0 nan
nan -0 -0 -0 -0 -0 -0 -0 -0 0 -0 -0 0 0 0 0 0 0 0 0 0 -0 0 0 0 0 0 0 0 0 -0 -0 -0 0 0 0 -0 -0 -0 -0 -0 -0 -0 -0 -0 -0 -0 -0 nan
nan -0 -0 -0 -0 -0 -0 -0 -0 0 0 -0 -0 0 -0 0 0 0 0 0 0 0 0 0 0 0 0 0 -0 0 0 -0 0 0 0 0 0 -0 -0 -0 -0 -0 -0 -0 -0 -0 -0 -0 nan
nan 0 0 0 -0 -0 -0 -1 -0 -0 0 0 -0 -0 -0 0 0 0 0 0 0 0 0 0 0 0 0 0 -0 -0 0 0 0 0 0 0 0 0 0 0 -0 -0 -0 -0 0 0 0 0 nan
nan -0 -0 -0 0 -0 -0 0 0 0 0 0 0 0 -0 0 0 0 0 0 0 0 0 0 0 0 1 1 0 -0 -0 0 0 0 0 0 0 0 0 0 0 -0 -0 -0 0 0 0 0 nan
nan 0 0 -0 -0 0 0 -0 0 -0 -0 0 0 0 0 0 0 0 0 0 0 0 -0 -0 -0 0 1 0 0 -0 0 0 0 0 0 0 0 0 0 0 0 0 -0 -0 -0 0 -0 0 nan
nan nan nan nan nan nan nan nan nan nan nan nan nan nan nan nan nan nan nan nan nan nan nan nan nan nan nan nan nan nan nan nan nan nan nan nan nan nan nan nan nan nan nan nan nan nan nan nan nan
Wind_Speed
12 14 11 3 0 3 5 0 7 6 5 11 18 17 19 19 6 7 9 10 11 2 3 5 3 2 2 1 1 1 1 2 2 3 4 4 5 6 6 6 6 5 4 3 3 4 4 5 5
16 9 10 3 2 4 5 6 7 6 12 15 12 13 16 7 15 17 9 10 8 2 3 3 2 3 3 2 1 1 2 3 3 4 4 4 4 6 6 6 6 6 6 6 6 7 6 7 7
15 10 4 3 4 5 1 8 12 16 16 8 6 17 9 6 8 8 9 12 5 2 2 0 1 2 2 3 3 2 3 3 5 6 7 7 7 7 7 7 7 8 8 8 7 8 8 8 9
8 6 4 2 10 3 4 10 20 12 8 7 17 9 10 6 7 11 13 9 7 2 3 2 1 1 1 3 4 4 5 6 7 10 10 10 9 9 10 10 10 10 10 10 9 9 8 9 9
10 5 3 4 8 3 4 19 20 10 9 13 11 6 8 11 14 13 14 13 7 3 1 1 2 3 3 5 6 7 7 7 7 10 12 11 11 12 12 12 12 12 12 12 11 11 10 10 10
6 5 3 6 7 5 6 18 18 15 16 9 16 12 7 11 13 13 9 8 5 3 1 2 3 5 6 7 8 9 10 10 12 13 14 13 12 12 12 13 13 13 13 14 13 13 13 12 12
4 3 5 9 8 6 5 11 11 14 16 7 17 6 13 13 12 11 8 6 4 2 1 3 6 7 8 9 10 11 12 13 14 15 14 14 13 14 14 14 14 15 14 15 16 16 16 15 16
4 2 4 6 10 6 9 7 10 14 6 11 4 7 8 19 15 11 7 4 1 1 3 4 6 7 8 9 10 10 11 13 14 15 15 14 13 13 14 14 15 15 15 16 17 18 18 18 19
2 1 4 6 11 8 17 3 8 9 15 9 9 11 18 19 15 11 7 3 1 3 4 6 6 7 7 8 9 10 10 10 12 13 14 13 12 12 13 15 17 17 18 19 20 20 20 20 21
3 2 2 9 7 11 17 12 7 8 14 10 15 16 18 16 14 9 6 3 3 3 5 5 6 7 8 9 9 10 9 10 10 11 11 10 10 12 14 15 13 14 13 15 17 17 19 20 19
5 2 3 10 8 16 16 17 10 14 5 14 16 17 15 15 11 9 10 7 4 3 5 6 8 8 9 9 9 9 8 10 10 11 11 10 10 11 11 10 9 11 13 12 12 15 15 17 17
1 6 10 4 8 16 8 13 5 7 5 11 15 15 16 15 12 9 6 4 2 3 5 7 8 10 11 12 11 10 8 9 10 10 12 10 8 9 9 8 8 9 9 12 14 15 16 15 15
1 4 6 5 11 12 13 7 3 9 11 14 16 16 14 12 11 10 9 5 2 4 6 8 10 11 13 13 12 10 8 8 11 11 11 11 10 11 11 11 10 9 9 9 12 14 15 18 19
10 10 9 7 7 4 6 3 3 7 13 16 16 14 13 12 12 9 6 4 3 4 6 8 10 12 14 14 13 11 9 8 10 10 8 8 8 8 9 8 7 8 8 9 10 12 13 14 18
21 8 6 5 5 2 4 2 4 18 14 13 13 13 13 11 10 6 7 10 6 5 6 9 11 13 14 15 13 10 10 9 6 10 9 6 6 6 5 4 7 8 6 9 10 10 11 12 12
6 6 5 4 3 1 1 3 8 15 16 14 14 13 13 12 12 10 13 10 7 6 8 10 11 13 14 15 12 8 11 8 2 4 7 8 7 6 7 5 7 6 5 8 9 10 6 10 11
7 4 6 4 1 3 4 4 9 12 13 13 15 14 14 12 13 13 13 10 8 8 9 11 11 12 13 13 10 6 10 11 2 4 5 3 4 4 5 6 6 6 7 8 10 8 8 10 13
5 6 6 6 6 1 4 2 7 11 12 13 16 16 16 15 17 14 13 13 11 11 11 11 12 13 13 12 6 4 12 10 5 4 3 4 4 5 6 7 8 8 8 10 11 12 10 13 15
9 8 9 6 2 3 4 5 7 14 14 13 14 18 20 19 15 16 15 16 14 12 12 12 12 13 14 11 7 8 12 8 4 4 4 5 5 6 5 5 6 8 10 11 12 12 13 13 13
9 8 6 6 4 2 6 7 8 10 15 20 19 19 19 18 17 17 18 18 16 13 14 13 12 13 13 10 8 8 8 5 3 3 4 5 4 3 4 4 7 9 10 10 10 12 12 12 15
5 9 6 6 5 1 1 6 7 9 20 24 23 18 14 14 17 18 20 18 16 16 15 13 12 13 13 9 7 6 1 2 2 6 5 4 4 4 6 7 7 8 9 9 10 10 11 11 10
4 3 9 10 4 3 3 3 2 6 7 5 13 13 11 11 9 13 19 19 18 16 16 13 13 13 12 7 6 4 5 6 7 5 3 4 4 5 6 7 8 9 10 9 9 9 10 10 9
4 1 6 6 3 3 3 4 5 6 6 6 11 11 11 10 12 16 16 18 18 15 16 13 13 14 11 8 7 7 7 7 6 5 5 5 6 6 7 8 8 8 9 9 10 11 11 11 10
8 6 5 5 2 3 2 3 4 3 4 5 5 6 8 7 9 10 12 17 15 16 15 13 14 13 10 9 9 9 9 8 7 7 8 7 8 8 8 9 9 10 10 10 10 10 9 9 9
3 2 3 4 3 3 3 1 6 6 6 8 8 8 4 5 6 6 10 10 11 13 14 14 14 13 11 11 11 11 11 10 11 10 9 9 9 10 10 10 10 10 10 10 10 10 10 11 11
3 2 4 5 4 3 4 4 3 6 7 4 7 4 3 3 5 7 9 11 12 13 15 15 15 13 13 13 14 14 14 13 13 12 11 11 11 12 11 11 11 11 10 10 10 11 12 13 13
3 1 0 3 1 4 4 5 5 6 4 6 6 3 1 2 4 6 8 11 12 13 14 15 15 15 15 16 17 18 17 16 16 14 14 14 13 13 12 12 12 12 11 11 11 12 13 13 14
4 2 4 3 3 2 2 2 3 3 4 5 5 7 5 3 5 7 9 11 13 14 14 15 17 17 17 19 20 20 20 20 18 18 18 17 16 15 14 14 14 14 14 13 13 13 13 14 14
2 2 1 1 3 2 1 3 3 5 5 7 7 3 4 7 10 12 15 18 19 19 19 18 19 20 20 21 22 23 23 23 22 21 21 20 18 18 17 16 16 15 16 16 16 15 15 15 15
3 3 3 3 2 1 2 4 5 7 7 6 4 6 7 7 9 12 15 19 20 21 22 22 21 22 23 22 24 27 26 25 26 25 24 22 22 21 20 19 18 18 18 18 17 17 16 17 17
Wind_Direction
160 142 120 157 238 221 236 302 106 81 61 56 53 82 91 52 28 113 121 92 96 200 178 71 64 63 82 59 41 329 333 342 349 334 342 342 344 341 346 353 359 357 347 318 307 304 298 304 311
145 138 140 255 236 195 240 121 121 104 102 95 63 84 45 73 83 113 103 99 113 201 110 61 44 32 28 20 6 317 309 312 304 299 299 294 305 311 320 328 329 329 331 313 293 291 296 289 278
137 153 184 183 215 221 142 147 103 103 121 119 84 78 75 85 77 111 126 111 111 230 121 110 45 38 26 4 350 333 319 318 312 302 295 289 289 294 299 297 302 307 310 314 306 295 291 290 274
142 152 257 208 238 6 112 108 111 113 108 116 116 79 87 71 111 131 120 127 142 172 143 186 281 330 304 326 329 318 317 312 314 314 306 297 294 292 292 295 293 295 300 303 301 303 298 291 275
177 236 232 198 245 144 87 115 127 139 144 148 114 91 88 101 127 138 150 152 167 145 119 214 294 306 304 298 301 306 310 308 305 301 304 306 298 296 294 293 293 293 294 294 293 294 294 292 279
174 259 220 211 189 96 68 133 159 137 133 102 100 102 113 150 153 142 151 147 137 130 98 319 301 291 287 284 285 290 293 292 293 294 301 298 301 300 296 293 293 291 289 290 290 289 290 288 283
257 213 244 217 134 119 127 161 172 132 120 144 140 97 146 169 163 148 145 143 145 135 328 321 315 311 300 289 285 284 283 286 288 290 294 294 298 302 298 297 289 288 288 289 290 289 286 285 282
240 245 267 249 140 152 133 191 144 143 50 115 75 156 166 188 166 155 154 152 153 294 310 308 306 306 306 304 303 297 293 292 290 288 288 289 295 300 300 300 288 293 295 297 299 297 294 289 286
272 279 232 246 150 118 147 132 75 80 117 84 62 111 159 176 158 160 156 146 258 289 307 313 318 321 323 317 327 318 315 309 302 301 298 296 280 268 269 278 299 297 294 293 291 292 292 294 293
224 247 263 3 21 135 153 155 118 131 119 109 102 118 147 158 155 158 140 186 222 286 317 330 333 334 334 333 332 325 328 322 319 313 315 308 294 285 280 281 282 303 308 310 309 292 288 290 296
206 310 65 27 47 136 161 144 162 133 183 165 159 149 153 147 153 158 176 207 249 296 325 338 343 344 344 338 333 327 323 319 311 308 310 309 305 298 300 295 283 277 281 294 304 300 309 307 284
224 23 26 12 25 139 149 109 169 125 66 146 162 155 151 158 166 173 194 197 258 302 333 345 347 348 346 337 332 323 315 318 309 301 301 312 305 304 305 305 294 293 294 284 275 275 273 272 286
162 76 45 63 55 76 109 78 141 94 105 130 141 153 159 163 170 174 201 215 244 308 332 344 347 348 346 340 336 325 312 299 299 307 309 306 308 308 308 302 294 281 277 285 286 283 283 285 278
120 115 107 94 67 87 105 73 79 136 136 135 151 158 170 176 191 200 193 241 251 288 324 336 339 341 342 341 340 334 322 306 303 316 334 316 312 316 324 327 327 315 291 287 296 300 297 294 288
133 108 112 98 151 83 111 126 254 161 160 159 167 172 185 189 190 215 187 216 233 287 312 328 335 339 342 342 339 335 319 323 344 338 345 341 337 339 350 3 353 330 356 320 290 286 291 312 320
167 148 138 128 203 211 49 193 142 162 167 174 181 184 189 196 205 199 228 238 250 278 304 317 328 332 337 334 329 325 302 325 356 322 334 342 346 353 347 343 347 8 339 335 340 355 327 319 316
196 167 125 129 46 121 215 85 132 164 186 193 193 196 205 211 224 216 237 232 257 276 289 305 315 320 329 328 325 333 303 320 39 310 305 328 340 0 11 8 7 3 346 350 346 341 337 323 326
172 144 121 133 176 231 176 268 150 185 204 217 210 208 212 218 227 229 234 245 248 265 281 296 304 315 326 324 327 296 293 313 320 317 325 347 359 352 353 355 357 9 5 7 2 2 346 344 346
154 143 125 79 99 199 207 245 196 186 210 226 234 212 217 217 221 225 228 248 253 264 279 288 300 313 321 315 289 239 273 292 300 317 332 327 333 326 342 346 4 7 2 4 3 0 359 359 352
175 139 100 73 131 189 191 248 246 210 205 214 223 229 223 214 205 216 232 248 254 266 276 283 293 310 315 302 282 280 301 312 344 332 327 325 337 1 8 4 352 0 7 1 359 3 7 6 5
158 142 149 152 157 233 349 281 216 224 221 213 217 223 229 221 208 218 241 255 262 265 271 278 294 307 311 297 281 287 277 352 344 304 315 322 340 344 343 349 2 355 345 348 354 355 353 354 6
83 32 124 136 138 153 161 267 224 183 192 201 201 205 224 230 203 229 242 253 266 261 265 275 291 305 304 286 268 256 221 226 270 286 318 337 334 344 349 345 339 336 333 337 346 351 352 349 352
150 176 135 169 106 96 183 69 261 87 177 186 207 216 219 231 237 234 231 246 259 253 259 273 291 302 292 271 259 244 234 248 259 275 282 292 319 325 327 325 322 315 319 331 341 344 345 341 340
146 125 86 62 68 54 39 114 289 134 105 89 61 133 148 204 230 225 218 236 237 245 263 279 287 292 278 261 253 245 246 250 254 263 286 306 309 309 307 306 309 315 322 330 332 331 332 332 330
271 164 49 28 25 202 312 43 255 123 72 98 90 102 160 216 215 222 225 237 243 259 278 282 285 282 267 252 250 248 249 255 264 276 282 287 293 297 301 302 306 309 313 318 321 321 322 322 323
52 78 142 159 168 197 47 225 244 101 73 95 124 131 160 210 238 241 264 266 272 276 280 285 286 279 262 251 251 255 257 261 269 273 278 278 279 286 296 303 301 300 307 312 311 312 314 317 318
185 132 351 95 54 75 193 242 59 66 127 130 128 96 96 304 288 274 268 271 276 281 285 285 283 280 265 259 258 261 259 265 269 269 269 273 279 285 290 292 295 300 302 302 302 304 306 307 308
39 154 67 1 103 212 260 202 212 44 80 120 108 64 50 346 322 314 307 300 295 288 286 287 289 283 273 259 259 262 268 270 267 267 269 271 276 280 284 288 293 296 296 297 297 297 302 303 303
124 135 41 73 111 155 155 259 52 135 124 108 90 66 351 328 323 317 312 307 300 292 287 286 287 284 274 266 259 262 267 267 268 266 268 271 273 277 280 284 289 293 294 294 296 298 299 297 298
358 327 193 112 198 287 161 260 89 110 117 112 12 18 357 347 341 334 326 314 302 297 300 294 293 288 284 274 266 264 267 265 264 267 268 268 270 272 276 279 282 286 290 291 292 294 294 295 296
Height
1508 1510 1515 1519 1527 1520 1518 1500 1493 1502 1503 1509 1507 1510 1522 1528 1533 1546 1548 1548 1550 1547 1548 1549 1549 1550 1549 1550 1550 1551 1551 1551 1552 1552 1552 1552 1552 1552 1551 1551 1551 1551 1551 1551 1551 1550 1550 1550 1550
1506 1511 1515 1517 1526 1527 1513 1496 1502 1504 1507 1511 1514 1517 1521 1537 1537 1541 1546 1549 1548 1545 1548 1548 1549 1550 1550 1550 1550 1551 1551 1551 1551 1552 1552 1552 1552 1551 1551 1551 1551 1550 1550 1550 1550 1550 1550 1550 1549
1507 1511 1515 1516 1517 1518 1507 1496 1502 1507 1510 1513 1519 1521 1528 1538 1540 1542 1546 1548 1547 1545 1547 1548 1549 1550 1550 1550 1550 1550 1551 1551 1551 1551 1551 1551 1551 1551 1551 1550 1550 1550 1550 1549 1549 1549 1549 1549 1549
1509 1513 1513 1514 1513 1500 1496 1497 1501 1509 1513 1515 1519 1528 1534 1538 1539 1542 1546 1547 1545 1545 1547 1548 1549 1549 1549 1549 1550 1550 1550 1550 1550 1551 1551 1550 1550 1550 1550 1550 1550 1549 1549 1549 1548 1548 1548 1548 1547
1508 1510 1512 1511 1505 1499 1494 1500 1506 1512 1515 1516 1518 1530 1537 1540 1540 1541 1543 1543 1543 1545 1547 1548 1549 1549 1549 1549 1549 1549 1549 1549 1549 1550 1550 1549 1549 1549 1549 1549 1548 1548 1548 1547 1547 1547 1547 1546 1546
1508 1505 1510 1513 1502 1498 1499 1503 1507 1510 1514 1517 1522 1529 1539 1540 1539 1541 1542 1543 1544 1545 1546 1547 1548 1548 1548 1548 1548 1548 1548 1548 1548 1548 1548 1547 1547 1547 1547 1546 1546 1546 1546 1545 1545 1545 1545 1545 1544
1505 1504 1505 1500 1502 1503 1504 1505 1507 1510 1516 1519 1522 1529 1538 1539 1538 1540 1542 1543 1544 1545 1546 1547 1547 1546 1546 1546 1546 1546 1546 1546 1546 1546 1545 1545 1545 1545 1544 1544 1543 1543 1543 1543 1543 1542 1542 1542 1541
1503 1501 1498 1493 1501 1506 1505 1507 1508 1513 1519 1519 1521 1526 1534 1534 1537 1540 1542 1543 1544 1545 1545 1546 1545 1545 1545 1544 1544 1544 1544 1543 1543 1543 1542 1543 1543 1542 1542 1541 1541 1541 1541 1541 1540 1540 1540 1539 1538
1502 1505 1503 1494 1495 1501 1505 1509 1510 1516 1518 1522 1525 1522 1525 1532 1537 1539 1541 1542 1543 1544 1544 1545 1544 1544 1544 1543 1543 1542 1542 1541 1541 1540 1540 1540 1540 1539 1539 1538 1538 1538 1538 1537 1537 1537 1536 1536 1535
1502 1502 1492 1495 1490 1497 1504 1511 1513 1517 1521 1526 1528 1528 1530 1533 1537 1540 1541 1542 1542 1543 1543 1544 1544 1544 1543 1543 1542 1541 1541 1540 1539 1538 1537 1537 1536 1536 1535 1535 1535 1535 1534 1534 1533 1533 1533 1532 1532
1500 1500 1494 1498 1495 1499 1505 1510 1514 1517 1522 1523 1526 1529 1531 1534 1538 1540 1540 1541 1541 1542 1543 1543 1543 1543 1542 1541 1540 1540 1539 1538 1537 1536 1535 1534 1534 1533 1533 1532 1532 1531 1531 1531 1531 1531 1530 1529 1529
1501 1501 1500 1501 1499 1502 1507 1510 1515 1517 1521 1521 1524 1529 1532 1535 1537 1539 1540 1540 1541 1541 1542 1542 1542 1542 1541 1540 1539 1537 1536 1536 1535 1533 1532 1532 1530 1530 1530 1529 1529 1528 1528 1527 1527 1527 1526 1525 1525
1501 1505 1506 1504 1503 1505 1508 1513 1515 1519 1521 1523 1526 1530 1534 1536 1537 1539 1539 1540 1541 1541 1541 1541 1541 1540 1539 1538 1536 1535 1534 1533 1532 1531 1531 1530 1529 1527 1527 1526 1526 1525 1524 1524 1523 1523 1522 1521 1520
1500 1506 1509 1508 1509 1511 1513 1516 1515 1521 1522 1524 1527 1531 1534 1536 1536 1538 1539 1540 1540 1540 1541 1540 1540 1539 1538 1536 1535 1533 1532 1531 1530 1529 1529 1528 1527 1526 1525 1525 1524 1523 1522 1521 1521 1520 1519 1517 1516
1503 1509 1511 1512 1513 1515 1515 1520 1518 1518 1522 1525 1528 1531 1533 1536 1537 1537 1539 1540 1540 1540 1540 1539 1539 1538 1536 1535 1533 1532 1530 1530 1530 1528 1528 1526 1525 1524 1524 1523 1521 1520 1519 1519 1517 1517 1516 1515 1513
1502 1506 1517 1514 1514 1516 1517 1516 1516 1519 1522 1524 1527 1530 1532 1535 1536 1537 1537 1538 1538 1538 1538 1538 1537 1536 1535 1533 1532 1531 1528 1529 1528 1528 1526 1525 1523 1523 1522 1521 1520 1519 1518 1517 1515 1514 1513 1513 1510
1502 1516 1509 1517 1515 1515 1518 1517 1518 1519 1522 1524 1526 1528 1530 1533 1534 1534 1535 1535 1535 1536 1536 1536 1536 1535 1534 1532 1530 1529 1528 1527 1526 1526 1525 1524 1522 1522 1521 1521 1519 1518 1517 1515 1514 1512 1510 1509 1507
1506 1506 1505 1514 1517 1517 1517 1517 1517 1519 1521 1522 1523 1525 1527 1529 1530 1532 1533 1533 1533 1534 1534 1534 1533 1533 1532 1530 1529 1529 1527 1526 1525 1524 1524 1523 1523 1522 1521 1519 1518 1517 1516 1514 1513 1511 1509 1507 1506
1493 1496 1506 1513 1514 1514 1515 1516 1515 1515 1519 1520 1520 1522 1523 1524 1527 1529 1530 1530 1530 1531 1532 1531 1531 1531 1530 1529 1528 1527 1526 1525 1524 1523 1523 1523 1522 1521 1520 1519 1518 1517 1515 1513 1511 1510 1508 1506 1504
1491 1498 1512 1514 1513 1515 1513 1516 1512 1512 1513 1514 1517 1518 1520 1521 1524 1525 1526 1527 1527 1529 1529 1529 1529 1528 1527 1526 1526 1525 1525 1524 1523 1523 1523 1522 1521 1520 1520 1519 1518 1516 1515 1513 1511 1509 1507 1506 1504
1492 1499 1510 1518 1515 1514 1514 1516 1508 1504 1506 1509 1512 1515 1518 1519 1520 1521 1522 1524 1525 1525 1526 1527 1526 1526 1525 1525 1524 1524 1524 1523 1523 1522 1522 1521 1521 1520 1520 1519 1517 1516 1514 1512 1510 1509 1508 1506 1506
1505 1495 1502 1510 1517 1534 1514 1542 1500 1501 1503 1505 1509 1512 1514 1517 1519 1520 1520 1521 1522 1523 1524 1524 1524 1523 1523 1523 1523 1523 1523 1523 1522 1522 1521 1521 1521 1520 1519 1518 1516 1514 1513 1511 1510 1508 1507 1506 1505
1506 1501 1503 1507 1510 1516 1516 1540 1508 1501 1507 1507 1508 1510 1512 1515 1517 1519 1520 1520 1521 1521 1521 1521 1521 1521 1520 1520 1521 1520 1520 1520 1520 1520 1520 1520 1520 1519 1518 1516 1514 1513 1511 1510 1509 1508 1507 1505 1504
1502 1505 1505 1507 1517 1542 1520 1529 1520 1511 1506 1508 1508 1509 1511 1514 1516 1517 1518 1519 1519 1519 1519 1519 1518 1518 1518 1518 1518 1518 1518 1518 1518 1519 1519 1519 1518 1517 1516 1514 1513 1512 1511 1510 1508 1507 1505 1504 1503
1505 1508 1539 1544 1553 1546 1525 1530 1519 1507 1506 1508 1510 1511 1513 1515 1516 1517 1517 1517 1517 1517 1516 1516 1516 1515 1515 1515 1515 1516 1516 1516 1516 1517 1517 1516 1516 1515 1514 1513 1512 1511 1509 1508 1506 1505 1504 1502 1501
1507 1510 1529 1540 1546 1544 1528 1537 1514 1507 1508 1510 1511 1513 1514 1515 1516 1516 1516 1516 1515 1515 1514 1513 1513 1512 1512 1512 1512 1513 1513 1514 1514 1514 1514 1514 1513 1512 1512 1511 1510 1508 1507 1506 1505 1503 1502 1500 1499
1511 1519 1512 1517 1515 1538 1530 1512 1507 1507 1509 1511 1512 1513 1514 1514 1514 1514 1514 1513 1513 1512 1511 1511 1510 1509 1509 1509 1509 1509 1510 1510 1511 1511 1511 1511 1510 1510 1509 1508 1507 1506 1505 1504 1502 1501 1499 1498 1496
1510 1511 1523 1528 1539 1526 1525 1508 1524 1514 1513 1512 1512 1513 1513 1513 1513 1513 1512 1511 1511 1510 1509 1507 1506 1506 1506 1506 1506 1506 1506 1507 1507 1507 1507 1507 1507 1506 1505 1505 1504 1503 1502 1501 1499 1497 1496 1494 1493
1513 1513 1512 1516 1524 1533 1525 1527 1508 1513 1512 1513 1513 1513 1512 1512 1512 1511 1510 1509 1507 1506 1505 1504 1504 1503 1502 1502 1502 1502 1502 1502 1502 1502 1503 1502 1502 1502 1502 1501 1501 1500 1498 1497 1495 1494 1493 1491 1489
1509 1507 1506 1522 1521 1521 1525 1528 1509 1512 1512 1512 1512 1512 1512 1511 1511 1510 1509 1507 1504 1502 1501 1501 1501 1499 1498 1498 1498 1497 1497 1498 1497 1497 1497 1498 1497 1497 1497 1497 1497 1496 1495 1493 1492 1490 1489 1488 1486